SCP
0 0 0 0 0 0 0 0 0 0 0 0 0 0 0 0 0 0 1 1 1 2 2 2 2 2 2 3 3 2 2 2 1 1 1 1 1 1 1 0 0 0 0 0
0 0 0 0 0 0 0 0 0 0 0 0 0 0 0 0 0 0 1 1 1 2 2 2 2 2 2 3 3 2 2 2 2 1 1 1 1 1 1 1 1 0 0 0
0 0 0 0 0 0 0 0 0 0 0 0 0 0 0 0 0 0 0 1 1 2 2 2 2 2 2 2 2 2 2 2 2 1 1 1 1 1 1 1 1 1 0 0
0 0 0 0 0 0 0 0 0 0 0 0 0 0 0 0 0 0 0 1 1 2 2 2 2 2 2 2 2 2 2 2 2 1 1 1 1 1 1 1 1 1 0 0
0 0 0 0 0 0 0 0 0 0 0 0 0 0 0 0 0 0 0 1 1 1 2 2 2 2 2 2 2 2 2 2 2 1 1 1 1 1 1 1 1 1 1 0
0 0 0 0 0 0 0 0 0 0 0 0 0 0 0 0 0 0 0 1 1 1 2 2 2 2 2 2 2 2 2 2 2 1 1 1 1 1 1 1 1 1 1 0
-0 0 0 0 0 0 0 0 0 0 0 0 0 0 0 0 0 0 0 1 1 1 1 2 2 2 2 2 2 2 2 2 1 1 1 1 1 1 1 1 1 1 0 0
-0 0 0 0 0 0 0 0 0 0 0 0 0 0 0 0 0 0 0 1 1 1 1 1 1 1 1 1 2 2 2 2 1 1 1 1 1 1 1 1 1 1 0 0
0 0 0 0 0 0 0 0 0 0 0 0 0 0 0 0 0 0 0 1 1 1 1 1 1 1 1 1 2 2 2 2 2 1 1 1 1 1 1 1 1 1 1 0
0 0 0 0 0 0 0 0 0 0 0 0 0 0 0 0 0 0 0 1 1 1 1 1 1 1 1 1 2 2 2 2 2 1 1 1 1 1 1 1 1 1 1 1
0 0 0 0 0 0 0 0 0 0 0 0 0 0 0 0 0 0 1 1 1 1 1 1 1 1 1 1 2 2 2 2 2 1 1 1 1 1 1 1 1 1 1 1
0 0 0 0 0 0 0 0 0 0 0 0 0 0 0 0 0 0 1 1 1 1 1 1 1 2 2 2 2 2 2 2 1 1 1 1 1 1 1 1 1 1 1 1
0 0 0 0 0 0 0 0 0 0 0 0 0 0 0 0 0 0 1 1 1 1 1 2 2 2 2 2 2 2 2 2 1 1 1 1 1 1 1 1 1 1 1 1
0 0 0 0 0 0 0 0 0 0 0 0 0 0 0 0 0 1 1 1 1 1 1 2 2 2 2 2 2 2 2 2 2 1 1 1 1 1 1 1 1 1 1 1
0 0 0 0 0 0 0 0 0 0 0 0 0 0 0 0 1 1 1 1 1 1 2 2 3 3 3 3 3 3 2 2 2 2 1 1 1 1 1 1 1 1 1 1
0 0 0 0 0 0 0 0 0 0 0 0 0 0 1 1 1 1 1 2 2 2 2 2 3 3 3 3 3 3 3 2 2 2 2 1 1 1 1 1 1 1 1 1
0 0 0 0 0 0 0 0 0 0 0 0 0 1 1 1 1 1 2 2 2 2 2 3 3 3 4 4 3 3 3 3 2 2 2 2 1 1 1 1 1 1 1 1
0 0 0 0 0 0 0 0 0 0 0 0 1 1 1 1 1 2 2 2 2 3 3 3 3 4 4 4 4 4 3 3 3 3 2 2 2 1 1 1 1 1 1 1
0 0 0 0 0 0 0 0 0 0 0 0 1 1 1 1 1 2 2 2 3 3 3 4 4 4 4 4 4 4 4 3 3 3 2 2 2 1 1 1 1 1 1 1
0 0 0 0 0 0 0 0 0 0 0 1 1 1 1 1 2 2 3 3 3 3 4 4 4 4 4 5 5 5 4 4 3 3 2 2 2 1 1 1 1 1 1 1
0 0 0 0 0 0 0 0 0 1 1 1 1 2 2 2 2 3 3 3 3 3 4 4 4 5 5 5 5 5 4 4 3 3 2 2 1 1 1 1 1 1 1 1
0 0 0 0 0 1 1 1 1 2 2 2 2 2 3 3 3 3 3 3 3 4 4 4 5 6 6 5 5 5 4 4 3 3 2 2 1 1 1 1 1 1 1 1
0 0 1 1 1 1 2 2 2 3 3 3 3 3 3 3 3 3 3 3 3 3 4 4 5 5 5 5 5 4 4 4 3 3 2 2 1 1 1 1 1 1 1 1
0 1 1 1 1 2 2 2 3 3 3 3 2 2 3 3 2 2 2 2 2 3 3 3 4 4 4 4 4 4 4 4 3 3 2 1 1 1 1 1 1 1 1 1
1 1 1 1 2 2 2 2 2 2 3 2 2 2 2 2 2 2 2 2 2 2 2 3 3 3 3 3 3 3 3 3 3 2 2 1 1 1 1 1 1 0 0 0
1 1 1 1 2 2 2 2 2 2 3 3 3 2 2 2 2 2 2 2 2 2 2 2 2 2 2 2 2 2 3 3 3 2 2 1 1 1 1 1 0 0 0 0
Wind_Speed
12 12 12 12 10 7 9 9 5 2 4 1 1 3 7 10 10 11 11 11 12 12 12 12 11 11 11 9 9 8 7 6 5 4 4 3 3 3 3 3 4 5 4 3
12 15 13 11 7 6 8 8 7 2 3 2 3 4 2 5 8 9 10 11 12 12 12 12 11 11 11 10 9 8 7 7 6 4 3 3 3 3 3 2 3 4 4 3
16 11 9 9 9 9 10 9 7 5 2 4 4 4 2 3 4 6 9 11 12 13 13 13 12 11 11 11 10 8 8 7 7 5 3 3 2 2 2 3 3 3 3 3
14 12 9 9 10 11 10 9 8 7 7 6 7 4 3 5 6 8 7 8 10 11 13 13 12 11 11 11 10 8 8 7 6 5 4 4 3 3 3 2 3 3 3 3
12 12 11 11 11 12 10 8 8 9 9 8 8 5 4 7 7 8 9 10 10 11 12 13 13 11 10 10 9 8 7 6 6 5 5 4 3 2 2 2 3 3 3 3
15 12 10 11 11 11 9 9 9 9 9 11 10 7 4 5 8 9 10 10 10 11 11 11 11 10 9 9 9 9 8 6 6 6 5 4 4 3 2 2 2 2 2 2
15 14 11 10 11 11 11 9 7 8 8 9 7 6 4 7 7 7 8 11 11 11 11 11 11 10 9 9 9 9 8 7 7 7 5 5 4 3 3 2 2 2 2 2
15 14 15 12 13 12 12 13 10 8 7 4 6 5 4 8 8 8 9 10 12 12 12 12 11 10 9 10 9 9 9 8 7 6 5 4 4 3 3 3 2 2 1 1
11 13 14 14 13 15 14 13 15 12 12 8 5 5 4 9 10 9 11 11 11 11 12 12 12 11 10 9 9 9 8 7 6 6 5 5 4 3 3 2 2 1 1 1
14 11 11 12 12 15 16 13 10 10 8 9 7 8 4 7 7 9 10 11 11 11 12 11 11 11 10 9 8 8 8 7 6 6 5 5 5 4 3 2 2 1 0 0
14 12 11 11 12 13 14 14 12 9 8 9 6 4 2 8 7 8 8 9 10 11 11 12 11 11 10 10 10 9 8 7 6 6 5 4 4 4 4 2 2 1 0 0
11 10 11 12 11 12 14 15 13 10 8 8 8 3 4 5 7 8 9 9 9 9 10 11 11 10 9 9 10 9 9 8 7 6 6 5 4 3 3 3 3 2 1 0
6 9 11 13 11 14 14 14 14 13 10 9 9 4 5 4 6 8 9 10 9 8 8 10 10 9 8 8 8 9 9 8 8 7 6 5 5 4 3 3 3 2 2 1
6 9 12 14 11 10 14 15 15 15 12 11 10 5 3 2 3 6 8 10 9 8 7 8 8 8 7 7 7 7 7 7 8 7 7 6 5 4 4 3 3 2 2 1
7 11 14 16 16 14 13 15 16 15 14 12 8 6 4 3 2 4 7 9 10 10 9 9 9 8 7 7 7 7 7 7 7 6 6 6 5 4 4 3 3 3 2 2
7 10 13 16 17 16 16 17 16 16 15 14 10 6 4 2 5 5 5 7 8 9 10 9 10 10 8 8 8 7 7 7 7 6 6 6 5 5 4 3 3 3 2 2
7 7 11 14 16 17 18 16 13 12 13 11 8 4 2 3 4 4 4 4 5 6 6 7 8 9 8 9 8 8 7 7 7 6 6 6 5 5 4 4 3 3 3 2
8 7 8 12 14 19 12 11 11 9 6 5 2 2 2 1 4 5 5 4 3 3 5 5 6 7 8 9 9 8 8 7 7 6 6 6 5 5 4 3 3 2 2 2
11 8 9 11 15 16 12 10 11 9 5 4 3 3 3 3 5 6 6 5 3 2 2 3 5 7 8 9 9 8 8 7 7 6 6 5 5 5 4 3 3 3 2 2
13 8 10 12 14 14 9 8 8 8 6 2 1 2 2 2 2 3 6 5 4 3 3 2 2 5 6 8 8 8 8 7 7 6 5 5 4 4 4 3 3 3 2 2
14 13 14 14 15 10 8 9 8 9 3 1 2 3 3 4 6 7 7 6 5 5 4 3 3 4 5 6 7 7 6 6 6 6 6 5 4 4 3 3 3 3 3 2
13 13 13 13 15 9 4 5 3 2 5 5 6 7 8 9 9 8 7 6 6 6 6 4 4 5 5 5 6 6 5 5 6 6 6 5 4 3 4 3 3 3 3 3
8 6 5 6 6 0 4 4 5 6 6 7 8 8 9 8 8 7 6 6 6 6 6 5 5 6 5 5 4 4 5 6 6 6 6 5 4 3 3 3 3 3 2 2
4 3 4 3 2 2 2 4 6 6 6 7 7 8 8 7 7 7 6 5 6 6 6 5 5 5 5 4 4 4 4 6 6 6 5 4 4 4 3 2 1 1 1 1
5 2 3 2 1 2 3 4 5 5 6 7 7 7 7 7 7 6 6 6 5 5 5 4 4 4 4 4 4 4 4 4 5 5 5 5 4 4 3 3 2 2 2 1
5 5 3 3 1 1 2 3 4 4 6 6 7 7 7 6 5 5 5 4 4 3 3 4 4 4 4 4 4 4 3 3 3 3 3 4 4 4 4 4 3 5 4 4
Wind_Direction
229 237 245 249 247 254 285 292 280 196 130 211 232 200 174 166 169 169 168 164 164 167 164 157 162 160 157 159 163 168 174 164 168 170 179 189 198 191 193 187 183 179 193 191
237 235 247 264 278 277 272 273 276 251 151 249 253 264 211 177 180 174 166 168 170 166 162 159 163 164 163 165 168 172 177 170 180 180 181 195 198 198 194 187 169 179 186 195
240 240 236 247 255 257 261 265 277 286 262 241 249 255 192 254 210 191 176 172 169 170 165 163 168 171 170 170 174 179 178 175 183 181 178 191 182 218 195 173 177 187 190 204
242 243 242 241 245 246 255 265 276 278 273 272 263 259 197 219 214 208 183 167 167 166 163 164 170 175 176 173 175 174 170 173 176 179 191 194 192 200 208 189 177 183 197 203
239 236 235 240 245 250 264 283 283 274 271 274 269 267 212 192 204 203 181 175 166 160 161 162 168 172 171 170 168 166 164 170 172 182 192 196 205 203 214 195 170 186 191 199
256 250 237 240 243 251 265 269 271 266 264 259 253 253 196 174 178 178 167 158 151 150 149 152 158 161 164 164 161 158 162 169 172 183 195 198 201 195 206 200 185 195 190 198
239 245 236 241 245 235 240 247 248 245 241 253 259 251 173 171 168 147 148 150 150 149 149 152 156 158 161 162 161 160 163 171 178 186 193 192 196 191 198 211 208 208 204 193
223 228 222 221 235 241 231 239 245 259 272 290 288 274 147 139 131 138 147 147 149 153 154 156 158 158 159 163 164 163 164 170 178 182 186 186 186 190 198 203 211 212 224 192
241 232 215 211 221 240 240 240 252 256 262 264 257 269 177 140 147 152 149 149 151 154 155 157 158 158 160 163 164 163 161 170 176 176 174 175 177 184 185 185 202 214 222 215
263 273 236 208 211 228 244 250 258 258 268 273 250 248 210 150 162 154 151 153 153 153 153 158 157 158 161 162 160 160 161 170 170 169 175 176 177 178 180 187 191 213 206 96
249 264 257 219 212 226 228 244 257 274 268 269 268 275 177 158 174 159 150 150 155 162 161 158 156 157 159 157 159 160 159 163 167 169 166 166 164 167 165 167 166 154 111 154
234 252 260 243 220 234 242 236 241 249 261 271 275 257 214 176 155 154 151 155 153 157 158 153 152 150 155 159 158 156 159 164 165 162 156 155 152 153 160 158 144 139 150 183
243 246 251 248 233 219 238 240 241 246 253 257 261 231 192 161 153 155 150 144 142 152 156 152 150 150 156 158 154 156 162 161 160 155 155 150 155 155 155 147 141 145 143 154
258 245 251 249 244 228 229 239 243 242 244 247 249 224 213 213 171 143 134 135 143 154 160 157 149 149 152 150 144 150 152 150 150 151 153 151 156 152 151 143 137 135 140 147
254 247 253 264 270 270 255 239 238 239 247 258 253 226 225 206 144 129 133 141 153 159 169 166 157 152 152 147 147 151 152 145 143 149 151 149 148 144 140 138 142 140 147 148
243 261 260 258 260 263 264 252 238 236 241 247 249 248 230 109 97 110 127 137 155 164 172 170 163 160 159 156 155 154 152 148 146 154 152 145 149 147 144 145 135 129 128 122
241 250 262 259 259 258 253 254 250 244 241 246 247 222 170 117 127 128 117 130 151 158 161 162 166 165 163 162 159 158 152 151 155 152 146 149 151 147 152 153 144 145 141 137
247 250 255 259 259 253 252 257 255 252 249 240 217 142 136 125 102 85 87 88 97 133 141 163 170 166 166 166 162 156 156 160 157 154 153 151 151 145 141 139 140 142 133 137
233 233 248 254 252 248 251 251 256 250 241 249 211 166 154 134 133 89 62 64 56 71 120 151 166 164 163 164 157 157 160 159 160 161 157 155 152 145 145 146 148 146 140 141
225 217 236 248 252 253 256 255 262 253 221 225 150 125 130 153 185 94 60 60 46 44 72 93 142 144 145 149 152 156 159 159 159 153 148 142 143 146 149 145 149 150 154 157
216 214 225 242 250 251 283 294 262 244 228 116 109 100 97 62 63 77 72 64 56 58 67 70 89 117 122 134 145 152 155 156 147 135 133 136 132 132 135 140 149 154 159 160
228 219 219 233 244 246 306 279 279 48 55 67 72 79 84 87 88 85 78 70 63 62 59 64 78 92 104 126 141 149 147 135 129 129 133 132 133 148 142 140 146 152 165 170
249 258 247 239 238 89 16 65 76 83 78 69 71 81 92 95 95 92 86 76 71 69 65 60 75 84 91 101 116 136 132 130 132 133 135 134 128 116 128 141 147 157 172 178
253 290 285 266 181 89 72 81 68 65 71 73 77 84 85 90 91 91 86 77 74 69 71 68 74 84 89 94 98 101 118 130 133 135 134 133 135 135 132 132 143 155 177 177
300 312 280 258 204 111 64 65 69 69 76 78 76 77 83 87 86 87 92 85 77 71 74 79 79 89 98 96 93 103 113 131 136 139 144 145 148 142 127 112 70 86 62 67
316 306 281 280 314 124 101 80 77 72 75 83 85 84 83 87 89 88 89 95 96 92 89 91 89 95 103 103 100 105 118 125 136 150 157 154 153 154 149 140 116 66 84 84